Location: Newark
(52.3735°N, 16.9806°E)
Time: 20:28:11
(UTC+00:00)

N. Korean satellite - Pass Details

Date: 05 October 2021
Orbit: 450 x 495 km, 97.3° (Epoch: 25 October)

Event Time Altitude Azimuth Distance (km) Brightness Sun altitude
Rises 03:30:07 0° 23° (NNE) 2,561 10.7 -14.5°
Reaches altitude 10° 03:32:27 10° 37° (NE) 1,683 10.0 -14.1°
Maximum altitude 03:35:29 25° 94° (E) 1,038 9.1 -13.7°
Drops below altitude 10° 03:38:31 10° 151° (SSE) 1,686 9.6 -13.2°
Sets 03:40:51 0° 165° (SSE) 2,567 10.3 -12.9°
